Time,TemperatureF,DewpointF,PressureIn,WindDirection,WindDirectionDegrees,WindSpeedMPH,WindSpeedGustMPH,Humidity,HourlyPrecipIn,Conditions,Clouds,dailyrainin,SoftwareType,DateUTC
2013-05-01 00:03:00,50.0,49.0,30.46,South,169,6.0,14.0,96,0.00,,,-99.99,,2013-05-01 04:03:00,
2013-05-01 00:12:00,50.0,49.0,30.46,South,169,6.0,14.0,96,0.00,,,-99.99,,2013-05-01 04:12:00,
2013-05-01 00:22:00,50.0,49.0,30.46,South,169,6.0,14.0,96,0.00,,,-99.99,,2013-05-01 04:22:00,
2013-05-01 00:32:00,50.0,49.0,30.47,SSE,153,9.0,14.0,96,0.00,,,-99.99,,2013-05-01 04:32:00,
2013-05-01 00:43:00,50.0,49.0,30.47,SSE,153,9.0,14.0,96,0.00,,,-99.99,,2013-05-01 04:43:00,
2013-05-01 00:52:00,49.0,48.0,30.47,SE,138,7.0,12.0,96,0.00,,,-99.99,,2013-05-01 04:52:00,
2013-05-01 01:02:00,49.0,48.0,30.47,SSW,193,1.0,10.0,96,0.00,,,-99.99,,2013-05-01 05:02:00,
2013-05-01 01:11:00,49.0,48.0,30.48,South,177,8.0,10.0,95,0.00,,,-99.99,,2013-05-01 05:11:00,
2013-05-01 01:21:00,49.0,48.0,30.48,South,177,8.0,10.0,95,0.00,,,-99.99,,2013-05-01 05:21:00,
2013-05-01 01:32:00,49.0,48.0,30.47,SE,141,7.0,9.0,95,0.00,,,-99.99,,2013-05-01 05:32:00,
2013-05-01 01:42:00,48.0,47.0,30.47,South,180,6.0,11.0,95,0.00,,,-99.99,,2013-05-01 05:42:00,
2013-05-01 01:52:00,48.0,47.0,30.47,South,180,6.0,11.0,95,0.00,,,-99.99,,2013-05-01 05:52:00,
2013-05-01 02:02:00,48.0,47.0,30.47,South,180,6.0,11.0,95,0.00,,,-99.99,,2013-05-01 06:02:00,
2013-05-01 02:12:00,48.0,47.0,30.46,SSE,158,1.0,10.0,95,0.00,,,-99.99,,2013-05-01 06:12:00,
2013-05-01 02:22:00,48.0,47.0,30.46,SSE,158,1.0,10.0,95,0.00,,,-99.99,,2013-05-01 06:22:00,
2013-05-01 02:32:00,48.0,47.0,30.46,ESE,114,3.0,10.0,95,0.00,,,-99.99,,2013-05-01 06:32:00,
2013-05-01 02:42:00,48.0,47.0,30.46,ESE,114,3.0,10.0,95,0.00,,,-99.99,,2013-05-01 06:42:00,
2013-05-01 02:51:00,47.0,46.0,30.46,South,170,5.0,12.0,95,0.00,,,-99.99,,2013-05-01 06:51:00,
2013-05-01 03:01:00,47.0,46.0,30.46,SSE,153,1.0,10.0,95,0.00,,,-99.99,,2013-05-01 07:01:00,
2013-05-01 03:11:00,47.0,46.0,30.46,SSE,153,1.0,10.0,95,0.00,,,-99.99,,2013-05-01 07:11:00,
2013-05-01 03:21:00,47.0,46.0,30.46,SSE,149,2.0,12.0,95,0.00,,,-99.99,,2013-05-01 07:21:00,
2013-05-01 03:32:00,47.0,46.0,30.45,South,180,3.0,8.0,95,0.00,,,-99.99,,2013-05-01 07:32:00,
2013-05-01 03:42:00,47.0,46.0,30.45,South,180,3.0,8.0,95,0.00,,,-99.99,,2013-05-01 07:42:00,
2013-05-01 03:52:00,47.0,46.0,30.45,South,180,3.0,8.0,95,0.00,,,-99.99,,2013-05-01 07:52:00,
2013-05-01 04:02:00,46.0,45.0,30.45,South,180,1.0,11.0,95,0.00,,,-99.99,,2013-05-01 08:02:00,
2013-05-01 04:11:00,46.0,45.0,30.45,South,180,1.0,11.0,95,0.00,,,-99.99,,2013-05-01 08:11:00,
2013-05-01 04:22:00,46.0,45.0,30.45,South,188,7.0,9.0,95,0.00,,,-99.99,,2013-05-01 08:22:00,
2013-05-01 04:32:00,46.0,45.0,30.45,SSW,193,7.0,9.0,95,0.00,,,-99.99,,2013-05-01 08:32:00,
2013-05-01 04:42:00,46.0,45.0,30.45,SSW,193,7.0,9.0,95,0.00,,,-99.99,,2013-05-01 08:42:00,
2013-05-01 04:53:00,46.0,45.0,30.45,SSE,160,0.0,7.0,95,0.00,,,-99.99,,2013-05-01 08:53:00,
2013-05-01 05:01:00,46.0,45.0,30.45,SE,141,5.0,10.0,95,0.00,,,-99.99,,2013-05-01 09:01:00,
2013-05-01 05:12:00,46.0,45.0,30.46,SE,127,3.0,9.0,95,0.00,,,-99.99,,2013-05-01 09:12:00,
2013-05-01 05:21:00,46.0,45.0,30.46,SE,127,3.0,9.0,95,0.00,,,-99.99,,2013-05-01 09:21:00,
2013-05-01 05:33:00,46.0,44.0,30.46,SSE,165,3.0,8.0,94,0.00,,,-99.99,,2013-05-01 09:33:00,
2013-05-01 05:42:00,46.0,44.0,30.46,SSE,165,3.0,8.0,94,0.00,,,-99.99,,2013-05-01 09:42:00,
2013-05-01 05:53:00,46.0,44.0,30.46,SSE,165,3.0,8.0,94,0.00,,,-99.99,,2013-05-01 09:53:00,
2013-05-01 06:03:00,46.0,44.0,30.46,SE,146,3.0,7.0,94,0.00,,,-99.99,,2013-05-01 10:03:00,
2013-05-01 06:12:00,46.0,44.0,30.46,SE,146,3.0,7.0,94,0.00,,,-99.99,,2013-05-01 10:12:00,
2013-05-01 06:22:00,46.0,44.0,30.46,SE,146,3.0,7.0,94,0.00,,,-99.99,,2013-05-01 10:22:00,
2013-05-01 06:33:00,45.0,43.0,30.46,SSE,162,3.0,10.0,94,0.00,,,-99.99,,2013-05-01 10:33:00,
2013-05-01 06:42:00,45.0,43.0,30.46,SSE,162,3.0,10.0,94,0.00,,,-99.99,,2013-05-01 10:42:00,
2013-05-01 06:53:00,45.0,43.0,30.46,SSE,162,3.0,10.0,94,0.00,,,-99.99,,2013-05-01 10:53:00,
2013-05-01 07:02:00,45.0,43.0,30.47,SSE,163,7.0,10.0,94,0.00,,,-99.99,,2013-05-01 11:02:00,
2013-05-01 07:11:00,45.0,43.0,30.47,SSE,163,7.0,10.0,94,0.00,,,-99.99,,2013-05-01 11:11:00,
2013-05-01 07:22:00,45.0,43.0,30.47,SSE,163,7.0,10.0,94,0.00,,,-99.99,,2013-05-01 11:22:00,
2013-05-01 07:32:00,45.0,43.0,30.48,SSE,149,6.0,10.0,93,0.00,,,-99.99,,2013-05-01 11:32:00,
2013-05-01 07:42:00,45.0,43.0,30.48,South,186,9.0,10.0,93,0.00,,,-99.99,,2013-05-01 11:42:00,
2013-05-01 07:52:00,45.0,43.0,30.48,South,186,9.0,10.0,93,0.00,,,-99.99,,2013-05-01 11:52:00,
2013-05-01 08:01:00,45.0,43.0,30.48,South,186,9.0,10.0,93,0.00,,,-99.99,,2013-05-01 12:01:00,
2013-05-01 08:11:00,45.0,43.0,30.48,South,186,9.0,10.0,93,0.00,,,-99.99,,2013-05-01 12:11:00,
2013-05-01 08:21:00,45.0,43.0,30.48,South,186,9.0,10.0,93,0.00,,,-99.99,,2013-05-01 12:21:00,
2013-05-01 08:32:00,46.0,44.0,30.49,SSE,153,7.0,9.0,93,0.00,,,-99.99,,2013-05-01 12:32:00,
2013-05-01 08:42:00,46.0,44.0,30.50,South,172,4.0,9.0,93,0.00,,,-99.99,,2013-05-01 12:42:00,
2013-05-01 08:52:00,46.0,44.0,30.50,South,172,4.0,9.0,93,0.00,,,-99.99,,2013-05-01 12:52:00,
2013-05-01 09:01:00,46.0,44.0,30.51,SSE,150,4.0,10.0,93,0.00,,,-99.99,,2013-05-01 13:01:00,
2013-05-01 09:11:00,46.0,44.0,30.51,SSE,150,4.0,10.0,93,0.00,,,-99.99,,2013-05-01 13:11:00,
2013-05-01 09:22:00,46.0,44.0,30.51,ESE,117,8.0,13.0,93,0.00,,,-99.99,,2013-05-01 13:22:00,
2013-05-01 09:32:00,46.0,44.0,30.51,ESE,117,8.0,13.0,93,0.00,,,-99.99,,2013-05-01 13:32:00,
2013-05-01 09:42:00,46.0,44.0,30.51,ESE,117,8.0,13.0,93,0.00,,,-99.99,,2013-05-01 13:42:00,
2013-05-01 09:52:00,47.0,45.0,30.52,SSE,167,6.0,11.0,92,0.00,,,-99.99,,2013-05-01 13:52:00,
2013-05-01 10:02:00,46.0,44.0,30.53,ESE,115,9.0,19.0,92,0.00,,,-99.99,,2013-05-01 14:02:00,
2013-05-01 10:11:00,46.0,44.0,30.53,ESE,115,9.0,19.0,92,0.00,,,-99.99,,2013-05-01 14:11:00,
2013-05-01 10:22:00,47.0,45.0,30.52,ESE,118,12.0,18.0,92,0.00,,,-99.99,,2013-05-01 14:22:00,
2013-05-01 10:32:00,47.0,45.0,30.53,ESE,114,10.0,14.0,91,0.00,,,-99.99,,2013-05-01 14:32:00,
2013-05-01 10:42:00,47.0,45.0,30.53,ESE,114,10.0,14.0,91,0.00,,,-99.99,,2013-05-01 14:42:00,
2013-05-01 10:52:00,47.0,45.0,30.54,ESE,121,6.0,18.0,91,0.00,,,-99.99,,2013-05-01 14:52:00,
2013-05-01 11:01:00,47.0,44.0,30.54,ESE,110,10.0,16.0,90,0.00,,,-99.99,,2013-05-01 15:01:00,
2013-05-01 11:11:00,48.0,45.0,30.55,SSE,165,5.0,15.0,89,0.00,,,-99.99,,2013-05-01 15:11:00,
2013-05-01 11:21:00,48.0,45.0,30.55,SSE,165,5.0,15.0,89,0.00,,,-99.99,,2013-05-01 15:21:00,
2013-05-01 11:33:00,48.0,45.0,30.55,ESE,105,7.0,16.0,89,0.00,,,-99.99,,2013-05-01 15:33:00,
2013-05-01 11:43:00,48.0,45.0,30.55,ESE,105,7.0,16.0,89,0.00,,,-99.99,,2013-05-01 15:43:00,
2013-05-01 11:53:00,48.0,45.0,30.55,ESE,105,7.0,16.0,89,0.00,,,-99.99,,2013-05-01 15:53:00,
2013-05-01 12:03:00,48.0,45.0,30.55,ESE,105,7.0,16.0,89,0.00,,,-99.99,,2013-05-01 16:03:00,
2013-05-01 12:12:00,49.0,45.0,30.56,SE,141,8.0,13.0,87,0.00,,,-99.99,,2013-05-01 16:12:00,
2013-05-01 12:22:00,49.0,45.0,30.56,SE,141,8.0,13.0,87,0.00,,,-99.99,,2013-05-01 16:22:00,
2013-05-01 12:32:00,49.0,45.0,30.55,SE,135,11.0,21.0,87,0.00,,,-99.99,,2013-05-01 16:32:00,
2013-05-01 12:42:00,49.0,45.0,30.55,SE,135,11.0,21.0,87,0.00,,,-99.99,,2013-05-01 16:42:00,
2013-05-01 12:53:00,50.0,47.0,30.55,SSE,158,8.0,22.0,88,0.00,,,-99.99,,2013-05-01 16:53:00,
2013-05-01 13:02:00,50.0,47.0,30.55,SSE,158,8.0,22.0,88,0.00,,,-99.99,,2013-05-01 17:02:00,
2013-05-01 13:12:00,50.0,47.0,30.55,SSE,158,8.0,22.0,88,0.00,,,-99.99,,2013-05-01 17:12:00,
2013-05-01 13:22:00,51.0,48.0,30.54,SE,124,10.0,18.0,89,0.00,,,-99.99,,2013-05-01 17:22:00,
2013-05-01 13:32:00,51.0,48.0,30.53,WSW,246,14.0,20.0,89,0.00,,,-99.99,,2013-05-01 17:32:00,
2013-05-01 13:42:00,51.0,48.0,30.53,WSW,246,14.0,20.0,89,0.00,,,-99.99,,2013-05-01 17:42:00,
2013-05-01 13:52:00,51.0,48.0,30.53,WSW,246,14.0,20.0,89,0.00,,,-99.99,,2013-05-01 17:52:00,
2013-05-01 14:01:00,51.0,49.0,30.53,ESE,117,11.0,16.0,94,0.00,,,-99.99,,2013-05-01 18:01:00,
2013-05-01 14:11:00,51.0,49.0,30.53,SE,132,15.0,22.0,94,0.00,,,-99.99,,2013-05-01 18:11:00,
2013-05-01 14:22:00,51.0,49.0,30.53,SE,132,15.0,22.0,94,0.00,,,-99.99,,2013-05-01 18:22:00,
2013-05-01 14:32:00,50.0,49.0,30.53,NNE,21,3.0,18.0,95,0.00,,,-99.99,,2013-05-01 18:32:00,
2013-05-01 14:42:00,50.0,49.0,30.53,NNE,21,3.0,18.0,95,0.00,,,-99.99,,2013-05-01 18:42:00,
2013-05-01 14:52:00,50.0,49.0,30.53,NNE,21,3.0,18.0,95,0.00,,,-99.99,,2013-05-01 18:52:00,
2013-05-01 15:02:00,51.0,49.0,30.54,South,177,5.0,18.0,94,0.00,,,-99.99,,2013-05-01 19:02:00,
2013-05-01 15:11:00,50.0,49.0,30.54,East,82,14.0,19.0,95,0.00,,,-99.99,,2013-05-01 19:11:00,
2013-05-01 15:22:00,50.0,49.0,30.54,East,82,14.0,19.0,95,0.00,,,-99.99,,2013-05-01 19:22:00,
2013-05-01 15:32:00,50.0,49.0,30.54,ESE,120,8.0,17.0,96,0.00,,,-99.99,,2013-05-01 19:32:00,
2013-05-01 15:43:00,50.0,49.0,30.54,ESE,120,8.0,17.0,96,0.00,,,-99.99,,2013-05-01 19:43:00,
2013-05-01 15:52:00,50.0,49.0,30.54,SSE,153,13.0,18.0,96,0.00,,,-99.99,,2013-05-01 19:52:00,
2013-05-01 16:02:00,50.0,49.0,30.55,SSE,155,16.0,19.0,96,0.00,,,-99.99,,2013-05-01 20:02:00,
2013-05-01 16:11:00,50.0,49.0,30.55,SSE,155,16.0,19.0,96,0.00,,,-99.99,,2013-05-01 20:11:00,
2013-05-01 16:21:00,50.0,49.0,30.55,SE,138,10.0,21.0,96,0.00,,,-99.99,,2013-05-01 20:21:00,
2013-05-01 16:32:00,50.0,49.0,30.55,SE,138,10.0,21.0,96,0.00,,,-99.99,,2013-05-01 20:32:00,
2013-05-01 16:42:00,50.0,49.0,30.55,SE,138,10.0,21.0,96,0.00,,,-99.99,,2013-05-01 20:42:00,
2013-05-01 16:52:00,50.0,49.0,30.54,ESE,120,8.0,14.0,96,0.00,,,-99.99,,2013-05-01 20:52:00,
2013-05-01 17:01:00,50.0,49.0,30.53,SSE,148,8.0,19.0,97,0.00,,,-99.99,,2013-05-01 21:01:00,
2013-05-01 17:11:00,50.0,49.0,30.53,SSE,148,8.0,19.0,97,0.00,,,-99.99,,2013-05-01 21:11:00,
2013-05-01 17:22:00,50.0,49.0,30.53,SSE,148,8.0,19.0,97,0.00,,,-99.99,,2013-05-01 21:22:00,
2013-05-01 17:32:00,49.0,48.0,30.53,South,172,7.0,13.0,97,0.00,,,-99.99,,2013-05-01 21:32:00,
2013-05-01 17:43:00,49.0,48.0,30.53,SSE,149,12.0,16.0,97,0.01,,,-99.99,,2013-05-01 21:43:00,
2013-05-01 17:53:00,49.0,48.0,30.53,SSE,149,12.0,16.0,97,0.01,,,-99.99,,2013-05-01 21:53:00,
2013-05-01 18:03:00,49.0,48.0,30.53,SE,134,9.0,11.0,97,0.01,,,-99.99,,2013-05-01 22:03:00,
2013-05-01 18:12:00,49.0,48.0,30.53,SSE,152,6.0,15.0,97,0.01,,,-99.99,,2013-05-01 22:12:00,
2013-05-01 18:23:00,49.0,48.0,30.53,SSE,152,6.0,15.0,97,0.01,,,-99.99,,2013-05-01 22:23:00,
2013-05-01 18:33:00,49.0,48.0,30.52,ESE,111,10.0,14.0,96,0.01,,,-99.99,,2013-05-01 22:33:00,
2013-05-01 18:42:00,49.0,48.0,30.52,ESE,111,10.0,14.0,96,0.01,,,-99.99,,2013-05-01 22:42:00,
2013-05-01 18:53:00,49.0,48.0,30.52,East,94,12.0,17.0,96,0.00,,,-99.99,,2013-05-01 22:53:00,
2013-05-01 19:02:00,49.0,48.0,30.52,East,94,12.0,17.0,96,0.00,,,-99.99,,2013-05-01 23:02:00,
2013-05-01 19:12:00,48.0,47.0,30.52,SSE,155,13.0,20.0,96,0.01,,,-99.99,,2013-05-01 23:12:00,
2013-05-01 19:21:00,48.0,47.0,30.52,SSE,155,13.0,20.0,96,0.01,,,-99.99,,2013-05-01 23:21:00,
2013-05-01 19:32:00,48.0,47.0,30.53,ESE,117,18.0,20.0,97,0.01,,,-99.99,,2013-05-01 23:32:00,
2013-05-01 19:42:00,48.0,47.0,30.53,ESE,117,18.0,20.0,97,0.01,,,-99.99,,2013-05-01 23:42:00,
2013-05-01 19:52:00,48.0,47.0,30.53,SE,125,18.0,21.0,96,0.01,,,-99.99,,2013-05-01 23:52:00,
2013-05-01 20:01:00,48.0,47.0,30.53,SE,141,10.0,20.0,96,0.01,,,-99.99,,2013-05-02 00:01:00,
2013-05-01 20:11:00,48.0,47.0,30.53,SE,141,10.0,20.0,96,0.01,,,-99.99,,2013-05-02 00:11:00,
2013-05-01 20:21:00,48.0,47.0,30.53,SE,141,10.0,20.0,96,0.01,,,-99.99,,2013-05-02 00:21:00,
2013-05-01 20:32:00,47.0,46.0,30.53,ESE,104,9.0,18.0,96,0.00,,,-99.99,,2013-05-02 00:32:00,
2013-05-01 20:42:00,47.0,46.0,30.53,ESE,104,9.0,18.0,96,0.00,,,-99.99,,2013-05-02 00:42:00,
2013-05-01 20:52:00,47.0,46.0,30.53,ESE,104,9.0,18.0,96,0.00,,,-99.99,,2013-05-02 00:52:00,
2013-05-01 21:01:00,47.0,46.0,30.53,SSE,148,17.0,25.0,96,0.00,,,-99.99,,2013-05-02 01:01:00,
2013-05-01 21:11:00,47.0,46.0,30.53,SSE,148,17.0,25.0,96,0.00,,,-99.99,,2013-05-02 01:11:00,
2013-05-01 21:22:00,47.0,46.0,30.53,SSE,148,17.0,25.0,96,0.00,,,-99.99,,2013-05-02 01:22:00,
2013-05-01 21:32:00,47.0,46.0,30.53,SSE,148,7.0,21.0,96,0.00,,,-99.99,,2013-05-02 01:32:00,
2013-05-01 21:42:00,47.0,46.0,30.53,SSE,148,7.0,21.0,96,0.00,,,-99.99,,2013-05-02 01:42:00,
2013-05-01 21:52:00,47.0,46.0,30.53,SSE,148,7.0,21.0,96,0.00,,,-99.99,,2013-05-02 01:52:00,
2013-05-01 22:02:00,47.0,46.0,30.53,SE,131,14.0,22.0,96,0.01,,,-99.99,,2013-05-02 02:02:00,
2013-05-01 22:12:00,47.0,46.0,30.53,SE,131,14.0,22.0,96,0.01,,,-99.99,,2013-05-02 02:12:00,
2013-05-01 22:22:00,47.0,46.0,30.53,SE,131,14.0,22.0,96,0.01,,,-99.99,,2013-05-02 02:22:00,
2013-05-01 22:32:00,47.0,46.0,30.54,East,97,12.0,19.0,96,0.01,,,-99.99,,2013-05-02 02:32:00,
2013-05-01 22:42:00,47.0,46.0,30.54,East,97,12.0,19.0,96,0.01,,,-99.99,,2013-05-02 02:42:00,
2013-05-01 22:51:00,47.0,46.0,30.54,East,97,12.0,19.0,96,0.01,,,-99.99,,2013-05-02 02:51:00,
2013-05-01 23:01:00,46.0,45.0,30.53,SE,136,13.0,21.0,96,0.00,,,-99.99,,2013-05-02 03:01:00,
2013-05-01 23:11:00,46.0,45.0,30.53,SE,136,13.0,21.0,96,0.00,,,-99.99,,2013-05-02 03:11:00,
2013-05-01 23:22:00,46.0,45.0,30.53,ESE,113,13.0,19.0,96,0.00,,,-99.99,,2013-05-02 03:22:00,
2013-05-01 23:33:00,46.0,45.0,30.53,SE,139,11.0,25.0,96,0.00,,,-99.99,,2013-05-02 03:33:00,
2013-05-01 23:43:00,46.0,45.0,30.53,SE,139,11.0,25.0,96,0.00,,,-99.99,,2013-05-02 03:43:00,
2013-05-01 23:53:00,46.0,45.0,30.53,SE,146,9.0,28.0,95,0.00,,,-99.99,,2013-05-02 03:53:00,